Time,TemperatureF,DewpointF,PressureIn,WindDirection,WindDirectionDegrees,WindSpeedMPH,WindSpeedGustMPH,Humidity,HourlyPrecipIn,Conditions,Clouds,dailyrainin,SoftwareType,DateUTC
2013-03-22 00:04:00,45.5,43.6,29.47,SW,234,1.0,3.0,93,0.00,,,0.00,Wunderground v.1.15,2013-03-22 07:04:00,
2013-03-22 00:10:00,45.5,43.6,29.47,SW,234,0.0,0.0,93,0.00,,,0.00,Wunderground v.1.15,2013-03-22 07:10:00,
2013-03-22 00:16:00,45.4,43.5,29.47,SW,231,0.0,1.0,93,0.00,,,0.00,Wunderground v.1.15,2013-03-22 07:16:00,
2013-03-22 00:22:00,45.3,43.4,29.47,SW,223,0.0,2.0,93,0.00,,,0.00,Wunderground v.1.15,2013-03-22 07:22:00,
2013-03-22 00:27:00,45.6,44.0,29.46,SW,225,0.0,2.0,94,0.00,,,0.00,Wunderground v.1.15,2013-03-22 07:27:00,
2013-03-22 00:33:00,45.3,43.4,29.46,North,351,1.0,3.0,93,0.00,,,0.00,Wunderground v.1.15,2013-03-22 07:33:00,
2013-03-22 00:39:00,45.1,43.2,29.45,North,351,1.0,3.0,93,0.00,,,0.00,Wunderground v.1.15,2013-03-22 07:39:00,
2013-03-22 00:44:00,44.8,42.6,29.45,West,277,0.0,1.0,92,0.00,,,0.00,Wunderground v.1.15,2013-03-22 07:44:00,
2013-03-22 00:49:00,44.7,42.8,29.45,West,281,0.0,1.0,93,0.00,,,0.00,Wunderground v.1.15,2013-03-22 07:49:00,
2013-03-22 00:55:00,44.5,42.6,29.45,NW,321,1.0,4.0,93,0.00,,,0.00,Wunderground v.1.15,2013-03-22 07:55:00,
2013-03-22 01:00:00,44.4,42.5,29.45,NW,311,1.0,1.0,93,0.00,,,0.00,Wunderground v.1.15,2013-03-22 08:00:00,
2013-03-22 01:06:00,44.4,42.5,29.44,North,350,1.0,2.0,93,0.00,,,0.00,Wunderground v.1.15,2013-03-22 08:06:00,
2013-03-22 01:11:00,44.3,42.4,29.44,WNW,298,1.0,2.0,93,0.00,,,0.00,Wunderground v.1.15,2013-03-22 08:11:00,
2013-03-22 01:18:00,44.3,42.4,29.44,WNW,298,1.0,2.0,93,0.00,,,0.00,Wunderground v.1.15,2013-03-22 08:18:00,
2013-03-22 01:24:00,44.3,42.4,29.44,South,183,0.0,1.0,93,0.00,,,0.00,Wunderground v.1.15,2013-03-22 08:24:00,
2013-03-22 01:28:00,44.2,42.3,29.44,NE,53,0.0,1.0,93,0.00,,,0.00,Wunderground v.1.15,2013-03-22 08:28:00,
2013-03-22 01:33:00,44.0,42.1,29.44,NE,34,1.0,1.0,93,0.00,,,0.00,Wunderground v.1.15,2013-03-22 08:33:00,
2013-03-22 01:39:00,43.7,41.5,29.44,North,10,1.0,2.0,92,0.00,,,0.00,Wunderground v.1.15,2013-03-22 08:39:00,
2013-03-22 01:44:00,43.7,41.8,29.44,NE,39,1.0,2.0,93,0.00,,,0.00,Wunderground v.1.15,2013-03-22 08:44:00,
2013-03-22 01:50:00,43.8,42.2,29.45,NE,44,1.0,1.0,94,0.00,,,0.00,Wunderground v.1.15,2013-03-22 08:50:00,
2013-03-22 01:55:00,43.9,42.3,29.45,NE,40,1.0,1.0,94,0.00,,,0.00,Wunderground v.1.15,2013-03-22 08:55:00,
2013-03-22 02:01:00,44.1,42.5,29.45,ENE,75,0.0,0.0,94,0.00,,,0.00,Wunderground v.1.15,2013-03-22 09:01:00,
2013-03-22 02:06:00,44.0,42.4,29.44,NNE,32,0.0,1.0,94,0.00,,,0.00,Wunderground v.1.15,2013-03-22 09:06:00,
2013-03-22 02:12:00,43.9,42.3,29.44,NNE,22,0.0,0.0,94,0.00,,,0.00,Wunderground v.1.15,2013-03-22 09:12:00,
2013-03-22 02:18:00,43.9,42.3,29.44,ESE,111,0.0,1.0,94,0.00,,,0.00,Wunderground v.1.15,2013-03-22 09:18:00,
2013-03-22 02:24:00,43.6,41.7,29.44,North,5,0.0,1.0,93,0.00,,,0.00,Wunderground v.1.15,2013-03-22 09:24:00,
2013-03-22 02:29:00,43.4,41.5,29.44,North,5,0.0,1.0,93,0.00,,,0.00,Wunderground v.1.15,2013-03-22 09:29:00,
2013-03-22 02:35:00,43.0,41.1,29.44,North,5,0.0,1.0,93,0.00,,,0.00,Wunderground v.1.15,2013-03-22 09:35:00,
2013-03-22 02:40:00,42.9,41.0,29.44,East,80,0.0,1.0,93,0.00,,,0.00,Wunderground v.1.15,2013-03-22 09:40:00,
2013-03-22 02:47:00,43.0,41.4,29.44,ENE,58,1.0,2.0,94,0.00,,,0.00,Wunderground v.1.15,2013-03-22 09:47:00,
2013-03-22 02:53:00,42.9,41.3,29.44,ENE,58,0.0,1.0,94,0.00,,,0.00,Wunderground v.1.15,2013-03-22 09:53:00,
2013-03-22 02:58:00,42.6,40.7,29.44,NW,319,0.0,1.0,93,0.00,,,0.00,Wunderground v.1.15,2013-03-22 09:58:00,
2013-03-22 03:03:00,42.3,40.4,29.44,NNW,331,0.0,0.0,93,0.00,,,0.00,Wunderground v.1.15,2013-03-22 10:03:00,
2013-03-22 03:08:00,41.9,39.7,29.44,NNW,342,0.0,2.0,92,0.00,,,0.00,Wunderground v.1.15,2013-03-22 10:08:00,
2013-03-22 03:14:00,41.8,39.9,29.44,North,350,1.0,3.0,93,0.00,,,0.00,Wunderground v.1.15,2013-03-22 10:14:00,
2013-03-22 03:20:00,41.8,40.2,29.44,North,5,1.0,1.0,94,0.00,,,0.00,Wunderground v.1.15,2013-03-22 10:20:00,
2013-03-22 03:26:00,41.9,40.3,29.43,NE,43,1.0,2.0,94,0.00,,,0.00,Wunderground v.1.15,2013-03-22 10:26:00,
2013-03-22 03:31:00,41.8,39.9,29.43,North,360,1.0,1.0,93,0.00,,,0.00,Wunderground v.1.15,2013-03-22 10:31:00,
2013-03-22 03:36:00,41.6,39.7,29.43,North,9,1.0,1.0,93,0.00,,,0.00,Wunderground v.1.15,2013-03-22 10:36:00,
2013-03-22 03:42:00,41.4,39.5,29.43,NNW,338,1.0,3.0,93,0.00,,,0.00,Wunderground v.1.15,2013-03-22 10:42:00,
2013-03-22 03:48:00,41.3,39.4,29.43,NNE,30,1.0,3.0,93,0.00,,,0.00,Wunderground v.1.15,2013-03-22 10:48:00,
2013-03-22 03:53:00,41.2,39.3,29.43,NW,320,1.0,4.0,93,0.00,,,0.00,Wunderground v.1.15,2013-03-22 10:53:00,
2013-03-22 03:58:00,41.2,39.3,29.43,North,349,2.0,4.0,93,0.00,,,0.00,Wunderground v.1.15,2013-03-22 10:58:00,
2013-03-22 04:04:00,41.4,39.5,29.43,North,9,2.0,3.0,93,0.00,,,0.00,Wunderground v.1.15,2013-03-22 11:04:00,
2013-03-22 04:09:00,41.4,39.5,29.43,NNE,15,1.0,3.0,93,0.00,,,0.00,Wunderground v.1.15,2013-03-22 11:09:00,
2013-03-22 04:15:00,41.4,39.5,29.44,South,189,1.0,2.0,93,0.00,,,0.00,Wunderground v.1.15,2013-03-22 11:15:00,
2013-03-22 04:21:00,41.2,39.1,29.44,South,189,0.0,0.0,92,0.00,,,0.00,Wunderground v.1.15,2013-03-22 11:21:00,
2013-03-22 04:27:00,40.9,38.8,29.43,NNW,335,0.0,2.0,92,0.00,,,0.00,Wunderground v.1.15,2013-03-22 11:27:00,
2013-03-22 04:32:00,40.6,38.5,29.44,NNW,335,1.0,1.0,92,0.00,,,0.00,Wunderground v.1.15,2013-03-22 11:32:00,
2013-03-22 04:37:00,40.3,37.9,29.44,NNW,327,0.0,1.0,91,0.00,,,0.00,Wunderground v.1.15,2013-03-22 11:37:00,
2013-03-22 04:42:00,40.1,38.0,29.44,NNW,327,0.0,0.0,92,0.00,,,0.00,Wunderground v.1.15,2013-03-22 11:42:00,
2013-03-22 04:47:00,40.0,37.9,29.44,NNW,327,0.0,0.0,92,0.00,,,0.00,Wunderground v.1.15,2013-03-22 11:47:00,
2013-03-22 04:53:00,39.7,37.6,29.44,NNW,327,0.0,1.0,92,0.00,,,0.00,Wunderground v.1.15,2013-03-22 11:53:00,
2013-03-22 04:59:00,39.3,36.9,29.44,NW,324,0.0,1.0,91,0.00,,,0.00,Wunderground v.1.15,2013-03-22 11:59:00,
2013-03-22 05:04:00,39.0,36.9,29.44,NW,324,0.0,0.0,92,0.00,,,0.00,Wunderground v.1.15,2013-03-22 12:04:00,
2013-03-22 05:10:00,38.8,36.7,29.44,NNW,330,0.0,2.0,92,0.00,,,0.00,Wunderground v.1.15,2013-03-22 12:10:00,
2013-03-22 05:15:00,38.7,36.6,29.44,NNW,330,1.0,2.0,92,0.00,,,0.00,Wunderground v.1.15,2013-03-22 12:15:00,
2013-03-22 05:20:00,38.6,36.5,29.44,NNW,331,0.0,0.0,92,0.00,,,0.00,Wunderground v.1.15,2013-03-22 12:20:00,
2013-03-22 05:26:00,38.3,36.2,29.45,NW,326,0.0,0.0,92,0.00,,,0.00,Wunderground v.1.15,2013-03-22 12:26:00,
2013-03-22 05:31:00,38.0,35.9,29.45,NW,326,0.0,0.0,92,0.00,,,0.00,Wunderground v.1.15,2013-03-22 12:31:00,
2013-03-22 05:37:00,38.0,36.2,29.45,NW,326,0.0,0.0,93,0.00,,,0.00,Wunderground v.1.15,2013-03-22 12:37:00,
2013-03-22 05:43:00,37.8,35.7,29.45,NW,326,0.0,0.0,92,0.00,,,0.00,Wunderground v.1.15,2013-03-22 12:43:00,
2013-03-22 05:48:00,37.4,35.3,29.45,NNW,329,0.0,1.0,92,0.00,,,0.00,Wunderground v.1.15,2013-03-22 12:48:00,
2013-03-22 05:54:00,37.3,35.5,29.45,North,360,1.0,2.0,93,0.00,,,0.00,Wunderground v.1.15,2013-03-22 12:54:00,
2013-03-22 05:59:00,37.2,35.4,29.44,North,355,1.0,2.0,93,0.00,,,0.00,Wunderground v.1.15,2013-03-22 12:59:00,
2013-03-22 06:04:00,37.2,35.4,29.45,North,360,1.0,1.0,93,0.00,,,0.00,Wunderground v.1.15,2013-03-22 13:04:00,
2013-03-22 06:10:00,37.3,35.7,29.46,ENE,69,1.0,1.0,94,0.00,,,0.00,Wunderground v.1.15,2013-03-22 13:10:00,
2013-03-22 06:16:00,37.6,36.0,29.46,NE,44,1.0,2.0,94,0.00,,,0.00,Wunderground v.1.15,2013-03-22 13:16:00,
2013-03-22 06:22:00,37.8,36.2,29.46,NE,42,1.0,1.0,94,0.00,,,0.00,Wunderground v.1.15,2013-03-22 13:22:00,
2013-03-22 06:28:00,37.7,36.1,29.46,WSW,242,0.0,1.0,94,0.00,,,0.00,Wunderground v.1.15,2013-03-22 13:28:00,
2013-03-22 06:33:00,37.6,36.0,29.46,WSW,242,0.0,1.0,94,0.00,,,0.00,Wunderground v.1.15,2013-03-22 13:33:00,
2013-03-22 06:38:00,37.6,36.0,29.47,SW,231,0.0,1.0,94,0.00,,,0.00,Wunderground v.1.15,2013-03-22 13:38:00,
2013-03-22 06:44:00,37.5,35.7,29.47,WNW,290,0.0,1.0,93,0.00,,,0.00,Wunderground v.1.15,2013-03-22 13:44:00,
2013-03-22 06:49:00,37.3,35.5,29.46,North,355,1.0,3.0,93,0.00,,,0.00,Wunderground v.1.15,2013-03-22 13:49:00,
2013-03-22 06:55:00,37.2,35.4,29.47,NNW,339,2.0,3.0,93,0.00,,,0.00,Wunderground v.1.15,2013-03-22 13:55:00,
2013-03-22 07:00:00,37.2,35.6,29.47,North,5,3.0,3.0,94,0.00,,,0.00,Wunderground v.1.15,2013-03-22 14:00:00,
2013-03-22 07:06:00,37.3,35.7,29.48,North,355,2.0,3.0,94,0.00,,,0.00,Wunderground v.1.15,2013-03-22 14:06:00,
2013-03-22 07:12:00,37.5,35.9,29.48,SE,126,1.0,1.0,94,0.00,,,0.00,Wunderground v.1.15,2013-03-22 14:12:00,
2013-03-22 07:17:00,37.7,36.1,29.48,ESE,111,0.0,2.0,94,0.00,,,0.00,Wunderground v.1.15,2013-03-22 14:17:00,
2013-03-22 07:23:00,37.8,36.2,29.49,ESE,111,1.0,5.0,94,0.00,,,0.00,Wunderground v.1.15,2013-03-22 14:23:00,
2013-03-22 07:29:00,38.0,36.4,29.49,ENE,69,0.0,5.0,94,0.00,,,0.00,Wunderground v.1.15,2013-03-22 14:29:00,
2013-03-22 07:35:00,38.3,36.7,29.50,NE,44,0.0,0.0,94,0.00,,,0.00,Wunderground v.1.15,2013-03-22 14:35:00,
2013-03-22 07:41:00,38.5,36.9,29.50,NNE,16,0.0,1.0,94,0.00,,,0.00,Wunderground v.1.15,2013-03-22 14:41:00,
2013-03-22 07:47:00,38.9,37.3,29.50,NNE,30,0.0,1.0,94,0.00,,,0.00,Wunderground v.1.15,2013-03-22 14:47:00,
2013-03-22 07:52:00,39.3,38.0,29.50,North,360,1.0,2.0,95,0.00,,,0.00,Wunderground v.1.15,2013-03-22 14:52:00,
2013-03-22 07:58:00,40.3,39.0,29.50,SSE,157,1.0,3.0,95,0.00,,,0.00,Wunderground v.1.15,2013-03-22 14:58:00,
2013-03-22 08:03:00,41.4,40.1,29.50,South,172,1.0,1.0,95,0.00,,,0.00,Wunderground v.1.15,2013-03-22 15:03:00,
2013-03-22 08:08:00,42.2,40.6,29.50,SSE,158,1.0,2.0,94,0.00,,,0.00,Wunderground v.1.15,2013-03-22 15:08:00,
2013-03-22 08:14:00,43.0,40.8,29.50,SE,146,1.0,2.0,92,0.00,,,0.00,Wunderground v.1.15,2013-03-22 15:14:00,
2013-03-22 08:19:00,43.4,40.9,29.50,SE,145,1.0,2.0,91,0.00,,,0.00,Wunderground v.1.15,2013-03-22 15:19:00,
2013-03-22 08:24:00,44.2,41.7,29.51,SE,132,0.0,0.0,91,0.00,,,0.00,Wunderground v.1.15,2013-03-22 15:24:00,
2013-03-22 08:29:00,45.1,42.6,29.51,SE,132,0.0,0.0,91,0.00,,,0.00,Wunderground v.1.15,2013-03-22 15:29:00,
2013-03-22 08:34:00,46.2,43.4,29.51,NE,42,0.0,1.0,90,0.00,,,0.00,Wunderground v.1.15,2013-03-22 15:34:00,
2013-03-22 08:39:00,47.2,43.2,29.51,NE,42,1.0,4.0,86,0.00,,,0.00,Wunderground v.1.15,2013-03-22 15:39:00,
2013-03-22 08:45:00,48.6,43.0,29.51,ENE,59,1.0,2.0,81,0.00,,,0.00,Wunderground v.1.15,2013-03-22 15:45:00,
2013-03-22 08:50:00,50.1,43.8,29.51,NE,46,1.0,2.0,79,0.00,,,0.00,Wunderground v.1.15,2013-03-22 15:50:00,
2013-03-22 08:56:00,51.9,43.5,29.51,NE,38,2.0,4.0,73,0.00,,,0.00,Wunderground v.1.15,2013-03-22 15:56:00,
2013-03-22 09:01:00,53.2,43.7,29.51,ENE,66,2.0,2.0,70,0.00,,,0.00,Wunderground v.1.15,2013-03-22 16:01:00,
2013-03-22 09:06:00,54.6,43.1,29.51,East,93,1.0,2.0,65,0.00,,,0.00,Wunderground v.1.15,2013-03-22 16:06:00,
2013-03-22 09:11:00,55.7,44.5,29.51,SE,133,1.0,4.0,66,0.00,,,0.00,Wunderground v.1.15,2013-03-22 16:11:00,
2013-03-22 09:16:00,56.1,44.5,29.51,SE,138,1.0,4.0,65,0.00,,,0.00,Wunderground v.1.15,2013-03-22 16:16:00,
2013-03-22 09:22:00,57.0,44.5,29.51,SE,132,1.0,2.0,63,0.00,,,0.00,Wunderground v.1.15,2013-03-22 16:22:00,
2013-03-22 09:28:00,57.6,44.7,29.51,SE,141,1.0,2.0,62,0.00,,,0.00,Wunderground v.1.15,2013-03-22 16:28:00,
2013-03-22 09:33:00,58.2,42.1,29.51,SE,141,1.0,1.0,55,0.00,,,0.00,Wunderground v.1.15,2013-03-22 16:33:00,
2013-03-22 09:38:00,59.2,42.1,29.51,SE,141,0.0,1.0,53,0.00,,,0.00,Wunderground v.1.15,2013-03-22 16:38:00,
2013-03-22 09:43:00,59.9,37.3,29.51,SE,138,1.0,2.0,43,0.00,,,0.00,Wunderground v.1.15,2013-03-22 16:43:00,
2013-03-22 09:48:00,61.0,35.8,29.51,ESE,110,1.0,2.0,39,0.00,,,0.00,Wunderground v.1.15,2013-03-22 16:48:00,
2013-03-22 09:54:00,62.6,37.9,29.51,SE,133,1.0,1.0,40,0.00,,,0.00,Wunderground v.1.15,2013-03-22 16:54:00,
2013-03-22 09:59:00,63.5,38.7,29.51,SW,216,1.0,2.0,40,0.00,,,0.00,Wunderground v.1.15,2013-03-22 16:59:00,
2013-03-22 10:05:00,64.2,37.4,29.51,SSW,204,1.0,1.0,37,0.00,,,0.00,Wunderground v.1.15,2013-03-22 17:05:00,
2013-03-22 10:10:00,64.6,39.1,29.51,SSW,200,1.0,1.0,39,0.00,,,0.00,Wunderground v.1.15,2013-03-22 17:10:00,
2013-03-22 10:16:00,65.3,40.3,29.51,SSW,209,2.0,4.0,40,0.00,,,0.00,Wunderground v.1.15,2013-03-22 17:16:00,
2013-03-22 10:22:00,65.7,35.8,29.51,South,184,2.0,3.0,33,0.00,,,0.00,Wunderground v.1.15,2013-03-22 17:22:00,
2013-03-22 10:27:00,66.1,35.4,29.51,SSW,193,2.0,3.0,32,0.00,,,0.00,Wunderground v.1.15,2013-03-22 17:27:00,
2013-03-22 10:32:00,66.9,34.4,29.51,South,186,1.0,3.0,30,0.00,,,0.00,Wunderground v.1.15,2013-03-22 17:32:00,
2013-03-22 10:38:00,67.6,34.2,29.51,SSW,211,1.0,3.0,29,0.00,,,0.00,Wunderground v.1.15,2013-03-22 17:38:00,
2013-03-22 10:43:00,68.4,37.4,29.51,WSW,249,1.0,3.0,32,0.00,,,0.00,Wunderground v.1.15,2013-03-22 17:43:00,
2013-03-22 10:48:00,68.6,37.5,29.51,SSW,194,2.0,5.0,32,0.00,,,0.00,Wunderground v.1.15,2013-03-22 17:48:00,
2013-03-22 10:53:00,68.5,39.0,29.51,South,171,3.0,4.0,34,0.00,,,0.00,Wunderground v.1.15,2013-03-22 17:53:00,
2013-03-22 10:58:00,68.7,36.8,29.51,South,178,3.0,4.0,31,0.00,,,0.00,Wunderground v.1.15,2013-03-22 17:58:00,
2013-03-22 11:03:00,69.0,37.9,29.51,SW,219,3.0,6.0,32,0.00,,,0.00,Wunderground v.1.15,2013-03-22 18:03:00,
2013-03-22 11:08:00,69.3,36.5,29.51,WSW,252,2.0,6.0,30,0.00,,,0.00,Wunderground v.1.15,2013-03-22 18:08:00,
2013-03-22 11:13:00,69.8,32.4,29.51,SSW,211,2.0,3.0,25,0.00,,,0.00,Wunderground v.1.15,2013-03-22 18:13:00,
2013-03-22 11:19:00,70.4,38.3,29.51,SW,215,2.0,5.0,31,0.00,,,0.00,Wunderground v.1.15,2013-03-22 18:19:00,
2013-03-22 11:25:00,70.6,39.3,29.51,SSW,212,3.0,4.0,32,0.00,,,0.00,Wunderground v.1.15,2013-03-22 18:25:00,
2013-03-22 11:30:00,70.8,36.1,29.51,SSW,198,3.0,4.0,28,0.00,,,0.00,Wunderground v.1.15,2013-03-22 18:30:00,
2013-03-22 11:35:00,70.8,39.5,29.51,SW,214,3.0,6.0,32,0.00,,,0.00,Wunderground v.1.15,2013-03-22 18:35:00,
2013-03-22 11:41:00,71.0,38.8,29.51,South,189,4.0,5.0,31,0.00,,,0.00,Wunderground v.1.15,2013-03-22 18:41:00,
2013-03-22 11:48:00,70.9,41.9,29.50,WSW,252,3.0,7.0,35,0.00,,,0.00,Wunderground v.1.15,2013-03-22 18:48:00,
2013-03-22 11:54:00,71.3,42.2,29.50,SW,220,3.0,6.0,35,0.00,,,0.00,Wunderground v.1.15,2013-03-22 18:54:00,
2013-03-22 11:59:00,71.2,41.4,29.50,WSW,246,3.0,6.0,34,0.00,,,0.00,Wunderground v.1.15,2013-03-22 18:59:00,
2013-03-22 12:04:00,71.1,44.2,29.50,SSW,199,4.0,7.0,38,0.00,,,0.00,Wunderground v.1.15,2013-03-22 19:04:00,
2013-03-22 12:10:00,71.2,46.3,29.50,WSW,246,4.0,4.0,41,0.00,,,0.00,Wunderground v.1.15,2013-03-22 19:10:00,
2013-03-22 12:14:00,71.3,47.6,29.50,SW,221,4.0,7.0,43,0.00,,,0.00,Wunderground v.1.15,2013-03-22 19:14:00,
2013-03-22 12:21:00,71.2,46.3,29.50,SW,216,4.0,5.0,41,0.00,,,0.00,Wunderground v.1.15,2013-03-22 19:21:00,
2013-03-22 12:27:00,71.2,48.2,29.50,SW,215,5.0,7.0,44,0.00,,,0.00,Wunderground v.1.15,2013-03-22 19:27:00,
2013-03-22 12:32:00,71.1,48.1,29.50,SSE,157,5.0,7.0,44,0.00,,,0.00,Wunderground v.1.15,2013-03-22 19:32:00,
2013-03-22 12:38:00,70.6,48.8,29.50,South,191,5.0,12.0,46,0.00,,,0.00,Wunderground v.1.15,2013-03-22 19:38:00,
2013-03-22 12:43:00,70.5,48.1,29.50,SSW,196,6.0,8.0,45,0.00,,,0.00,Wunderground v.1.15,2013-03-22 19:43:00,
2013-03-22 12:49:00,70.3,48.5,29.50,West,266,6.0,8.0,46,0.00,,,0.00,Wunderground v.1.15,2013-03-22 19:49:00,
2013-03-22 12:55:00,70.7,48.9,29.50,WSW,238,5.0,8.0,46,0.00,,,0.00,Wunderground v.1.15,2013-03-22 19:55:00,
2013-03-22 13:01:00,70.9,50.2,29.49,SW,216,5.0,5.0,48,0.00,,,0.00,Wunderground v.1.15,2013-03-22 20:01:00,
2013-03-22 13:07:00,71.1,47.5,29.50,SSW,205,5.0,6.0,43,0.00,,,0.00,Wunderground v.1.15,2013-03-22 20:07:00,
2013-03-22 13:13:00,70.9,47.3,29.49,SW,217,5.0,5.0,43,0.00,,,0.00,Wunderground v.1.15,2013-03-22 20:13:00,
2013-03-22 13:18:00,70.9,45.4,29.49,South,180,5.0,7.0,40,0.00,,,0.00,Wunderground v.1.15,2013-03-22 20:18:00,
2013-03-22 13:24:00,71.0,47.4,29.49,SW,227,6.0,10.0,43,0.00,,,0.00,Wunderground v.1.15,2013-03-22 20:24:00,
2013-03-22 13:30:00,71.0,45.5,29.49,South,189,6.0,6.0,40,0.00,,,0.00,Wunderground v.1.15,2013-03-22 20:30:00,
2013-03-22 13:35:00,70.9,44.7,29.49,SW,223,6.0,8.0,39,0.00,,,0.00,Wunderground v.1.15,2013-03-22 20:35:00,
2013-03-22 13:42:00,70.5,43.0,29.49,WSW,242,6.0,7.0,37,0.00,,,0.00,Wunderground v.1.15,2013-03-22 20:42:00,
2013-03-22 13:48:00,70.6,41.6,29.49,SW,220,6.0,8.0,35,0.00,,,0.00,Wunderground v.1.15,2013-03-22 20:48:00,
2013-03-22 13:53:00,70.7,40.9,29.48,SW,235,6.0,9.0,34,0.00,,,0.00,Wunderground v.1.15,2013-03-22 20:53:00,
2013-03-22 13:58:00,70.7,43.1,29.48,SW,234,7.0,9.0,37,0.00,,,0.00,Wunderground v.1.15,2013-03-22 20:58:00,
2013-03-22 14:03:00,70.9,43.3,29.48,West,271,6.0,11.0,37,0.00,,,0.00,Wunderground v.1.15,2013-03-22 21:03:00,
2013-03-22 14:09:00,71.1,39.7,29.48,SSW,209,6.0,11.0,32,0.00,,,0.00,Wunderground v.1.15,2013-03-22 21:09:00,
2013-03-22 14:14:00,71.4,40.8,29.48,SW,232,6.0,9.0,33,0.00,,,0.00,Wunderground v.1.15,2013-03-22 21:14:00,
2013-03-22 14:21:00,72.0,40.5,29.48,SSW,208,5.0,5.0,32,0.00,,,0.00,Wunderground v.1.15,2013-03-22 21:21:00,
2013-03-22 14:26:00,72.2,38.2,29.47,SW,236,5.0,11.0,29,0.00,,,0.00,Wunderground v.1.15,2013-03-22 21:26:00,
2013-03-22 14:31:00,72.5,37.5,29.47,WSW,244,5.0,9.0,28,0.00,,,0.00,Wunderground v.1.15,2013-03-22 21:31:00,
2013-03-22 14:36:00,72.7,35.8,29.47,South,183,6.0,10.0,26,0.00,,,0.00,Wunderground v.1.15,2013-03-22 21:36:00,
2013-03-22 14:41:00,72.6,34.7,29.47,WSW,253,6.0,6.0,25,0.00,,,0.00,Wunderground v.1.15,2013-03-22 21:41:00,
2013-03-22 14:46:00,72.3,34.5,29.46,SW,230,6.0,8.0,25,0.00,,,0.00,Wunderground v.1.15,2013-03-22 21:46:00,
2013-03-22 14:52:00,72.3,35.5,29.46,SSE,162,6.0,8.0,26,0.00,,,0.00,Wunderground v.1.15,2013-03-22 21:52:00,
2013-03-22 14:57:00,72.4,35.6,29.46,South,188,7.0,14.0,26,0.00,,,0.00,Wunderground v.1.15,2013-03-22 21:57:00,
2013-03-22 15:03:00,72.6,34.7,29.46,SW,225,6.0,9.0,25,0.00,,,0.00,Wunderground v.1.15,2013-03-22 22:03:00,
2013-03-22 15:08:00,72.7,33.8,29.46,SW,219,6.0,9.0,24,0.00,,,0.00,Wunderground v.1.15,2013-03-22 22:08:00,
2013-03-22 15:14:00,72.9,32.9,29.46,SW,221,6.0,8.0,23,0.00,,,0.00,Wunderground v.1.15,2013-03-22 22:14:00,
2013-03-22 15:19:00,73.1,33.1,29.46,SSE,153,6.0,8.0,23,0.00,,,0.00,Wunderground v.1.15,2013-03-22 22:19:00,
2013-03-22 15:25:00,73.1,33.1,29.46,SW,223,6.0,11.0,23,0.00,,,0.00,Wunderground v.1.15,2013-03-22 22:25:00,
2013-03-22 15:30:00,73.1,33.1,29.45,SSE,168,5.0,8.0,23,0.00,,,0.00,Wunderground v.1.15,2013-03-22 22:30:00,
2013-03-22 15:36:00,73.2,33.2,29.46,SSW,213,6.0,8.0,23,0.00,,,0.00,Wunderground v.1.15,2013-03-22 22:36:00,
2013-03-22 15:42:00,73.0,34.1,29.46,SW,222,6.0,6.0,24,0.00,,,0.00,Wunderground v.1.15,2013-03-22 22:42:00,
2013-03-22 15:47:00,72.9,31.8,29.46,SW,222,6.0,6.0,22,0.00,,,0.00,Wunderground v.1.15,2013-03-22 22:47:00,
2013-03-22 15:53:00,72.7,32.7,29.46,SW,229,6.0,7.0,23,0.00,,,0.00,Wunderground v.1.15,2013-03-22 22:53:00,
2013-03-22 15:59:00,72.8,32.8,29.46,SW,225,5.0,6.0,23,0.00,,,0.00,Wunderground v.1.15,2013-03-22 22:59:00,
2013-03-22 16:05:00,72.8,32.8,29.46,SW,222,5.0,8.0,23,0.00,,,0.00,Wunderground v.1.15,2013-03-22 23:05:00,
2013-03-22 16:10:00,72.9,30.6,29.46,South,191,5.0,5.0,21,0.00,,,0.00,Wunderground v.1.15,2013-03-22 23:10:00,
2013-03-22 16:16:00,73.0,30.7,29.46,SSW,204,5.0,8.0,21,0.00,,,0.00,Wunderground v.1.15,2013-03-22 23:16:00,
2013-03-22 16:21:00,72.9,34.0,29.46,WSW,242,5.0,5.0,24,0.00,,,0.00,Wunderground v.1.15,2013-03-22 23:21:00,
2013-03-22 16:26:00,72.9,34.0,29.46,WSW,256,4.0,6.0,24,0.00,,,0.00,Wunderground v.1.15,2013-03-22 23:26:00,
2013-03-22 16:32:00,72.8,35.9,29.46,WSW,237,4.0,7.0,26,0.00,,,0.00,Wunderground v.1.15,2013-03-22 23:32:00,
2013-03-22 16:38:00,72.9,35.0,29.45,WSW,244,4.0,8.0,25,0.00,,,0.00,Wunderground v.1.15,2013-03-22 23:38:00,
2013-03-22 16:43:00,72.7,36.8,29.45,SW,228,4.0,5.0,27,0.00,,,0.00,Wunderground v.1.15,2013-03-22 23:43:00,
2013-03-22 16:50:00,72.9,36.9,29.45,WSW,239,4.0,5.0,27,0.00,,,0.00,Wunderground v.1.15,2013-03-22 23:50:00,
2013-03-22 16:55:00,73.0,37.0,29.45,SW,223,4.0,8.0,27,0.00,,,0.00,Wunderground v.1.15,2013-03-22 23:55:00,
2013-03-22 17:01:00,72.9,36.9,29.45,SSW,195,4.0,4.0,27,0.00,,,0.00,Wunderground v.1.15,2013-03-23 00:01:00,
2013-03-22 17:07:00,72.7,36.8,29.45,SW,234,4.0,8.0,27,0.00,,,0.00,Wunderground v.1.15,2013-03-23 00:07:00,
2013-03-22 17:12:00,72.7,38.6,29.45,WSW,244,3.0,6.0,29,0.00,,,0.00,Wunderground v.1.15,2013-03-23 00:12:00,
2013-03-22 17:18:00,72.4,37.4,29.45,WSW,246,4.0,7.0,28,0.00,,,0.00,Wunderground v.1.15,2013-03-23 00:18:00,
2013-03-22 17:24:00,72.0,38.0,29.45,WSW,257,5.0,8.0,29,0.00,,,0.00,Wunderground v.1.15,2013-03-23 00:24:00,
2013-03-22 17:29:00,71.9,38.8,29.44,WSW,254,4.0,4.0,30,0.00,,,0.00,Wunderground v.1.15,2013-03-23 00:29:00,
2013-03-22 17:34:00,71.7,39.4,29.45,WSW,252,4.0,5.0,31,0.00,,,0.00,Wunderground v.1.15,2013-03-23 00:34:00,
2013-03-22 17:40:00,71.6,41.0,29.44,West,264,3.0,4.0,33,0.00,,,0.00,Wunderground v.1.15,2013-03-23 00:40:00,
2013-03-22 17:45:00,71.4,42.3,29.44,WSW,255,3.0,6.0,35,0.00,,,0.00,Wunderground v.1.15,2013-03-23 00:45:00,
2013-03-22 17:50:00,71.2,42.9,29.45,WSW,244,3.0,4.0,36,0.00,,,0.00,Wunderground v.1.15,2013-03-23 00:50:00,
2013-03-22 17:56:00,70.8,43.9,29.45,SSW,208,3.0,6.0,38,0.00,,,0.00,Wunderground v.1.15,2013-03-23 00:56:00,
2013-03-22 18:02:00,69.6,44.8,29.45,WSW,256,2.0,3.0,41,0.00,,,0.00,Wunderground v.1.15,2013-03-23 01:02:00,
2013-03-22 18:08:00,68.7,45.3,29.45,SW,223,3.0,6.0,43,0.00,,,0.00,Wunderground v.1.15,2013-03-23 01:08:00,
2013-03-22 18:14:00,68.1,45.4,29.45,SW,225,3.0,3.0,44,0.00,,,0.00,Wunderground v.1.15,2013-03-23 01:14:00,
2013-03-22 18:19:00,67.5,46.0,29.45,SW,220,1.0,3.0,46,0.00,,,0.00,Wunderground v.1.15,2013-03-23 01:19:00,
2013-03-22 18:25:00,67.0,46.1,29.45,WSW,239,1.0,3.0,47,0.00,,,0.00,Wunderground v.1.15,2013-03-23 01:25:00,
2013-03-22 18:30:00,66.6,46.3,29.45,SW,215,1.0,1.0,48,0.00,,,0.00,Wunderground v.1.15,2013-03-23 01:30:00,
2013-03-22 18:36:00,66.2,46.5,29.45,SW,215,0.0,1.0,49,0.00,,,0.00,Wunderground v.1.15,2013-03-23 01:36:00,
2013-03-22 18:42:00,65.7,46.5,29.46,SW,217,0.0,2.0,50,0.00,,,0.00,Wunderground v.1.15,2013-03-23 01:42:00,
2013-03-22 18:47:00,65.3,46.2,29.46,WSW,253,1.0,4.0,50,0.00,,,0.00,Wunderground v.1.15,2013-03-23 01:47:00,
2013-03-22 18:53:00,64.8,46.2,29.46,SW,223,1.0,1.0,51,0.00,,,0.00,Wunderground v.1.15,2013-03-23 01:53:00,
2013-03-22 18:59:00,64.4,46.9,29.46,SW,223,0.0,1.0,53,0.00,,,0.00,Wunderground v.1.15,2013-03-23 01:59:00,
2013-03-22 19:05:00,63.8,47.8,29.46,SW,227,0.0,1.0,56,0.00,,,0.00,Wunderground v.1.15,2013-03-23 02:05:00,
2013-03-22 19:11:00,63.2,47.7,29.46,SW,227,0.0,0.0,57,0.00,,,0.00,Wunderground v.1.15,2013-03-23 02:11:00,
2013-03-22 19:16:00,62.2,47.2,29.47,SSW,211,0.0,1.0,58,0.00,,,0.00,Wunderground v.1.15,2013-03-23 02:16:00,
2013-03-22 19:22:00,61.3,47.3,29.47,SW,226,0.0,1.0,60,0.00,,,0.00,Wunderground v.1.15,2013-03-23 02:22:00,
2013-03-22 19:28:00,60.3,47.2,29.47,WNW,288,0.0,1.0,62,0.00,,,0.00,Wunderground v.1.15,2013-03-23 02:28:00,
2013-03-22 19:34:00,59.5,47.3,29.47,WNW,292,0.0,0.0,64,0.00,,,0.00,Wunderground v.1.15,2013-03-23 02:34:00,
2013-03-22 19:39:00,58.6,46.9,29.47,WNW,292,0.0,0.0,65,0.00,,,0.00,Wunderground v.1.15,2013-03-23 02:39:00,
2013-03-22 19:44:00,57.9,46.6,29.48,WNW,292,0.0,0.0,66,0.00,,,0.00,Wunderground v.1.15,2013-03-23 02:44:00,
2013-03-22 19:49:00,57.0,45.7,29.48,WNW,292,0.0,0.0,66,0.00,,,0.00,Wunderground v.1.15,2013-03-23 02:49:00,
2013-03-22 19:56:00,55.9,45.5,29.48,WNW,292,0.0,1.0,68,0.00,,,0.00,Wunderground v.1.15,2013-03-23 02:56:00,
2013-03-22 20:02:00,55.2,45.2,29.49,WNW,292,0.0,1.0,69,0.00,,,0.00,Wunderground v.1.15,2013-03-23 03:02:00,
2013-03-22 20:08:00,54.4,44.4,29.49,WNW,292,0.0,2.0,69,0.00,,,0.00,Wunderground v.1.15,2013-03-23 03:08:00,
2013-03-22 20:13:00,53.8,44.6,29.49,WNW,292,0.0,0.0,71,0.00,,,0.00,Wunderground v.1.15,2013-03-23 03:13:00,
2013-03-22 20:19:00,53.3,44.1,29.49,WNW,292,0.0,0.0,71,0.00,,,0.00,Wunderground v.1.15,2013-03-23 03:19:00,
2013-03-22 20:26:00,52.7,43.9,29.49,NW,306,0.0,3.0,72,0.00,,,0.00,Wunderground v.1.15,2013-03-23 03:26:00,
2013-03-22 20:31:00,52.1,43.7,29.49,NNW,339,1.0,2.0,73,0.00,,,0.00,Wunderground v.1.15,2013-03-23 03:31:00,
2013-03-22 20:37:00,51.7,44.0,29.49,NNW,336,1.0,2.0,75,0.00,,,0.00,Wunderground v.1.15,2013-03-23 03:37:00,
2013-03-22 20:43:00,51.1,43.8,29.49,NNW,332,1.0,3.0,76,0.00,,,0.00,Wunderground v.1.15,2013-03-23 03:43:00,
2013-03-22 20:49:00,50.7,43.8,29.49,NNW,334,2.0,3.0,77,0.00,,,0.00,Wunderground v.1.15,2013-03-23 03:49:00,
2013-03-22 20:54:00,50.5,43.9,29.50,South,172,1.0,1.0,78,0.00,,,0.00,Wunderground v.1.15,2013-03-23 03:54:00,
2013-03-22 21:00:00,50.3,44.0,29.50,South,172,0.0,0.0,79,0.00,,,0.00,Wunderground v.1.15,2013-03-23 04:00:00,
2013-03-22 21:01:00,50.3,44.0,29.50,South,172,0.0,0.0,79,0.00,,,0.00,Wunderground v.1.15,2013-03-23 04:01:00,
2013-03-22 21:06:00,50.2,43.9,29.50,South,172,0.0,1.0,79,0.00,,,0.00,Wunderground v.1.15,2013-03-23 04:06:00,
2013-03-22 21:11:00,49.8,43.5,29.51,NNW,338,1.0,3.0,79,0.00,,,0.00,Wunderground v.1.15,2013-03-23 04:11:00,
2013-03-22 21:17:00,49.3,43.1,29.51,NW,317,1.0,3.0,79,0.00,,,0.00,Wunderground v.1.15,2013-03-23 04:17:00,
2013-03-22 21:23:00,48.8,42.6,29.52,WNW,285,1.0,1.0,79,0.00,,,0.00,Wunderground v.1.15,2013-03-23 04:23:00,
2013-03-22 21:28:00,48.6,42.4,29.52,WNW,285,0.0,1.0,79,0.00,,,0.00,Wunderground v.1.15,2013-03-23 04:28:00,
2013-03-22 21:34:00,48.4,41.9,29.52,WNW,294,0.0,3.0,78,0.00,,,0.00,Wunderground v.1.15,2013-03-23 04:34:00,
2013-03-22 21:40:00,48.1,41.6,29.52,NW,318,1.0,1.0,78,0.00,,,0.00,Wunderground v.1.15,2013-03-23 04:40:00,
2013-03-22 21:45:00,47.8,40.9,29.52,NW,321,1.0,1.0,77,0.00,,,0.00,Wunderground v.1.15,2013-03-23 04:45:00,
2013-03-22 21:51:00,47.5,41.3,29.51,NW,321,0.0,0.0,79,0.00,,,0.00,Wunderground v.1.15,2013-03-23 04:51:00,
2013-03-22 21:57:00,47.2,41.0,29.52,NW,324,0.0,0.0,79,0.00,,,0.00,Wunderground v.1.15,2013-03-23 04:57:00,
2013-03-22 22:02:00,47.0,40.8,29.52,NW,324,0.0,0.0,79,0.00,,,0.00,Wunderground v.1.15,2013-03-23 05:02:00,
2013-03-22 22:08:00,46.9,41.7,29.52,East,90,0.0,1.0,82,0.00,,,0.00,Wunderground v.1.15,2013-03-23 05:08:00,
2013-03-22 22:14:00,46.6,41.4,29.52,NNE,33,1.0,2.0,82,0.00,,,0.00,Wunderground v.1.15,2013-03-23 05:14:00,
2013-03-22 22:20:00,46.3,41.1,29.52,NW,323,1.0,1.0,82,0.00,,,0.00,Wunderground v.1.15,2013-03-23 05:20:00,
2013-03-22 22:26:00,45.9,41.3,29.52,NNE,25,1.0,3.0,84,0.00,,,0.00,Wunderground v.1.15,2013-03-23 05:26:00,
2013-03-22 22:31:00,45.8,41.2,29.52,NE,34,1.0,1.0,84,0.00,,,0.00,Wunderground v.1.15,2013-03-23 05:31:00,
2013-03-22 22:36:00,45.6,41.0,29.52,NNE,31,0.0,1.0,84,0.00,,,0.00,Wunderground v.1.15,2013-03-23 05:36:00,
2013-03-22 22:42:00,45.4,40.5,29.52,North,5,1.0,1.0,83,0.00,,,0.00,Wunderground v.1.15,2013-03-23 05:42:00,
2013-03-22 22:47:00,45.1,40.2,29.53,ENE,75,1.0,2.0,83,0.00,,,0.00,Wunderground v.1.15,2013-03-23 05:47:00,
2013-03-22 22:53:00,45.1,39.9,29.53,SE,135,0.0,2.0,82,0.00,,,0.00,Wunderground v.1.15,2013-03-23 05:53:00,
2013-03-22 23:00:00,45.1,40.2,29.53,SE,132,0.0,0.0,83,0.00,,,0.00,Wunderground v.1.15,2013-03-23 06:00:00,
2013-03-22 23:05:00,45.1,40.6,29.53,ESE,117,0.0,0.0,84,0.00,,,0.00,Wunderground v.1.15,2013-03-23 06:05:00,
2013-03-22 23:12:00,45.0,40.5,29.53,North,350,0.0,1.0,84,0.00,,,0.00,Wunderground v.1.15,2013-03-23 06:12:00,
2013-03-22 23:18:00,44.7,40.2,29.54,NNE,22,1.0,3.0,84,0.00,,,0.00,Wunderground v.1.15,2013-03-23 06:18:00,
2013-03-22 23:23:00,44.5,40.0,29.53,NW,319,1.0,1.0,84,0.00,,,0.00,Wunderground v.1.15,2013-03-23 06:23:00,
2013-03-22 23:29:00,44.4,40.2,29.53,East,85,1.0,1.0,85,0.00,,,0.00,Wunderground v.1.15,2013-03-23 06:29:00,
2013-03-22 23:35:00,44.4,40.5,29.53,North,5,1.0,2.0,86,0.00,,,0.00,Wunderground v.1.15,2013-03-23 06:35:00,
2013-03-22 23:41:00,44.4,40.2,29.53,NNW,342,2.0,2.0,85,0.00,,,0.00,Wunderground v.1.15,2013-03-23 06:41:00,
2013-03-22 23:46:00,44.5,40.0,29.54,NNW,340,1.0,2.0,84,0.00,,,0.00,Wunderground v.1.15,2013-03-23 06:46:00,
2013-03-22 23:52:00,44.4,39.9,29.54,NW,311,0.0,0.0,84,0.00,,,0.00,Wunderground v.1.15,2013-03-23 06:52:00,
2013-03-22 23:58:00,44.2,39.4,29.54,NE,42,0.0,2.0,83,0.00,,,0.00,Wunderground v.1.15,2013-03-23 06:58:00,